Location: Saluda
(35.2377°N, 82.3468°W)
Time: 02:54:56
(UTC+00:00)

Vanguard 2 Rocket - Pass Details

Date: 09 October 2022
Orbit: 555 x 3321 km, 32.9° (Epoch: 05 December)

Event Time Altitude Azimuth Distance (km) Brightness Sun altitude
Rises 02:02:11 0° 240° (WSW) 7,294 12.0 -36.8°
Reaches altitude 10° 02:07:13 10° 238° (WSW) 6,262 11.5 -37.7°
Enters shadow 02:26:16 67° 168° (SSE) 2,903 9.0 -41.3°
Maximum altitude 02:26:39 67° 162° (SSE) 2,880 - -41.4°
Drops below altitude 10° 02:39:23 10° 83° (E) 4,321 - -43.7°
Sets 02:42:10 0° 81° (E) 5,011 - -44.2°
